Simultaneous Nadir Overpasses (SNOs) Predictions

Prediction of SNOs between NOAA-19 and TERRA Satellite Orbit:

Table of predicted SNOs for the next 14.0 days since TLE Epoch: 8/22/2020
Index Date (NOAA-19) Time (NOAA-19) Lat,Lon (NOAA-19) SZA (NOAA-19 ) Date (TERRA) Time (TERRA) Lat,Lon (TERRA) SZA (TERRA ) Distance(km) Time Diff (sec)
1 08/23/2020 14:05:42 -79.67, 177.81 110.21 08/23/2020 14:06:39 -79.66, 177.78 110.21 1.99 57
2 08/23/2020 14:56:43 79.64, -14.59 69.81 08/23/2020 14:56:05 79.66, -14.55 69.81 2.47 38
3 08/25/2020 20:29:57 -79.65, 82.06 109.41 08/25/2020 20:29:49 -79.68, 82.15 109.38 3.55 8
4 08/28/2020 02:03:16 79.67, 178.65 71.39 08/28/2020 02:03:33 79.66, 178.59 71.39 1.56 17
5 08/28/2020 02:54:12 -79.63, -13.71 108.59 08/28/2020 02:53:00 -79.66, -13.76 108.60 3.55 72
6 08/30/2020 07:36:29 -79.68, -84.71 107.80 08/30/2020 07:37:17 -79.68, -84.72 107.78 0.45 48
7 08/30/2020 08:27:32 79.66, 82.72 72.22 08/30/2020 08:26:44 79.64, 82.64 72.18 3.14 48
8 09/01/2020 13:09:49 79.70, 11.83 73.03 09/01/2020 13:11:00 79.69, 11.92 73.06 2.39 71
9 09/01/2020 14:00:44 -79.66, 179.51 106.95 09/01/2020 14:00:27 -79.69, 179.60 106.93 3.71 17
10 09/03/2020 19:34:04 79.68, -83.84 73.89 09/03/2020 19:34:10 79.70, -83.80 73.92 2.83 6
